Location: Newark
(51.0500°N, 12.4500°E)
Time: 01:40:07
(UTC+00:00)

Tiros 1 - Pass Details

Date: 24 February 2020
Orbit: 630 x 664 km, 48.4° (Epoch: 06 April)

Event Time Altitude Azimuth Distance (km) Brightness Sun altitude
Rises 03:32:39 0° 265° (W) 2,924 - -24.8°
Reaches altitude 10° 03:34:59 10° 263° (W) 2,013 - -24.4°
Maximum altitude 03:39:33 64° 183° (S) 701 - -23.7°
Exits shadow 03:39:35 64° 180° (S) 701 7.1 -23.7°
Drops below altitude 10° 03:44:07 10° 102° (ESE) 2,008 10.6 -23.0°
Sets 03:46:27 0° 99° (E) 2,916 11.7 -22.7°
